Voltar ao catálogo

STARLINK-4534

AtivoComunicaçõesVLEO
NORAD 53395·PAYLOAD·🇺🇸 United States

Lançado Aug 10, 2022 de Cape Canaveral Space Force Station

Loading…

Próximas Passagens (próximas 24 horas)

TLE

AtualizadoSource: CelesTrak SupGP

Época: Sep 15, 2026, 02:19 UTC

1 53395C 22097H   26258.09701389  .00008455  00000+0  27189-3 0  2584
2 53395  53.1573 344.0535 0001282  88.8630  21.7623 15.31698310    10

Acompanhe STARLINK-4534 em tempo real com AllMySat

Download on the App Store